User: anonymous   Login
Location: Vancouver
(49.2500°N, 123.1330°W)
Time: 10:00:52
(UTC-08:00)
Language:

S-56A Canister/Altair - Orbit

View from above orbital plane
View from above orbital plane
View from above satellite
View from above satellite

Ground track
Ground track

The orbit data is extracted from the following two-line orbital elements,

1    82U 61004B   16339.92865758 +.00000104 +00000-0 +12733-3 0  9997
2    82 038.8578 295.9135 1167601 336.3363 018.7542 12.25798098649427
Epoch (UTC): 04 December 2016 22:17:16
Eccentricity: 0.1167601
inclination: 38.8578°
perigee height: 639 km
apogee height: 2495 km
right ascension of ascending node: 295.9135°
argument of perigee: 336.3363°
revolutions per day: 12.25798098
mean anomaly at epoch: 18.7542°
orbit number at epoch: 64942

The dashed part of the orbit path shows where the satellite is in the earth's shadow,  

DLR